| time (UTC) | temp F | wind direction | speed MPH | gust MPH | rain 1hr in | rain 24hr in | rain mn in | humidity % | barometer mb |
| 20260505181600 | 83 | 224 | 3.0 | 8.0 | 0.00 | 0.00 | 0.00 | 49 | 720.7 |
| 20260505180105 | 82 | 235 | 3.0 | 8.0 | 0.00 | 0.00 | 0.00 | 51 | 720.7 |
| 20260505174605 | 82 | 221 | 3.0 | 11.0 | 0.00 | 0.00 | 0.00 | 52 | 720.7 |
| 20260505173059 | 81 | 232 | 5.0 | 11.0 | 0.00 | 0.00 | 0.00 | 52 | 720.7 |
| 20260505171600 | 81 | 230 | 2.0 | 10.0 | 0.00 | 0.00 | 0.00 | 53 | 720.7 |
| 20260505170059 | 80 | 235 | 3.0 | 9.0 | 0.00 | 0.00 | 0.00 | 54 | 720.7 |
| 20260505164605 | 79 | 208 | 2.0 | 8.0 | 0.00 | 0.00 | 0.00 | 56 | 720.7 |
| 20260505163057 | 78 | 234 | 2.0 | 11.0 | 0.00 | 0.00 | 0.00 | 56 | 809.3 |
| 20260505161604 | 78 | 249 | 3.0 | 7.0 | 0.00 | 0.00 | 0.00 | 56 | 809.3 |
| 20260505153054 | 75 | 228 | 3.0 | 8.0 | 0.00 | 0.00 | 0.00 | 59 | 809.3 |
| 20260505151600 | 75 | 218 | 1.0 | 8.0 | 0.00 | 0.00 | 0.00 | 60 | 809.3 |
| 20260505140113 | 72 | 227 | 3.0 | 7.0 | 0.00 | 0.00 | 0.00 | 66 | 809.3 |
| 20260505124520 | 70 | 214 | 2.0 | 5.0 | 0.00 | 0.00 | 0.00 | 67 | 809.3 |
| 20260505123019 | 70 | 231 | 2.0 | 5.0 | 0.00 | 0.00 | 0.00 | 67 | 809.3 |
| 20260505121522 | 70 | 240 | 1.0 | 6.0 | 0.00 | 0.00 | 0.00 | 66 | 809.3 |
| 20260505120032 | 70 | 236 | 2.0 | 5.0 | 0.00 | 0.00 | 0.00 | 66 | 809.3 |
| 20260505114523 | 70 | 229 | 2.0 | 7.0 | 0.00 | 0.00 | 0.00 | 66 | 809.3 |
| 20260505113027 | 70 | 228 | 2.0 | 5.0 | 0.00 | 0.00 | 0.00 | 66 | 809.3 |
| 20260505111531 | 70 | 224 | 2.0 | 7.0 | 0.00 | 0.00 | 0.00 | 65 | 809.3 |
| 20260505101541 | 71 | 232 | 2.0 | 6.0 | 0.00 | 0.00 | 0.00 | 64 | 809.3 |
| 20260505100032 | 71 | 247 | 2.0 | 9.0 | 0.00 | 0.00 | 0.00 | 64 | 809.3 |
| 20260505094538 | 71 | 267 | 3.0 | 6.0 | 0.00 | 0.00 | 0.00 | 63 | 809.3 |
| 20260505093034 | 71 | 200 | 2.0 | 10.0 | 0.00 | 0.00 | 0.00 | 63 | 809.3 |
| 20260505091542 | 71 | 229 | 2.0 | 11.0 | 0.00 | 0.00 | 0.00 | 63 | 809.3 |
| 20260505090041 | 72 | 233 | 3.0 | 8.0 | 0.00 | 0.00 | 0.00 | 62 | 809.3 |
| 20260505084543 | 72 | 200 | 2.0 | 8.0 | 0.00 | 0.00 | 0.00 | 62 | 809.3 |
| 20260505083041 | 72 | 185 | 3.0 | 6.0 | 0.00 | 0.00 | 0.00 | 62 | 809.3 |
| 20260505081544 | 72 | 177 | 4.0 | 10.0 | 0.00 | 0.00 | 0.00 | 62 | 809.3 |
| 20260505080044 | 72 | 229 | 3.0 | 8.0 | 0.00 | 0.00 | 0.00 | 61 | 809.3 |
| 20260505074540 | 72 | 235 | 2.0 | 9.0 | 0.00 | 0.00 | 0.00 | 61 | 809.3 |
| 20260505073049 | 72 | 207 | 2.0 | 8.0 | 0.00 | 0.00 | 0.00 | 60 | 809.3 |
| 20260505071552 | 73 | 222 | 2.0 | 8.0 | 0.00 | 0.00 | 0.00 | 59 | 809.3 |
| 20260505070041 | 73 | 229 | 2.0 | 8.0 | 0.00 | 0.00 | 0.00 | 58 | 809.3 |
| 20260505064548 | 73 | 210 | 2.0 | 7.0 | 0.00 | 0.00 | 0.00 | 57 | 809.3 |
| 20260505063043 | 73 | 226 | 2.0 | 7.0 | 0.00 | 0.00 | 0.00 | 57 | 809.3 |
| 20260505061548 | 74 | 216 | 1.0 | 5.0 | 0.00 | 0.00 | 0.00 | 56 | 809.3 |
| 20260505060049 | 74 | 241 | 1.0 | 7.0 | 0.00 | 0.00 | 0.00 | 56 | 809.3 |
| 20260505054543 | 73 | 221 | 2.0 | 7.0 | 0.00 | 0.00 | 0.00 | 56 | 809.3 |
| 20260505053042 | 73 | 209 | 2.0 | 6.0 | 0.00 | 0.00 | 0.00 | 56 | 809.3 |
| 20260505051558 | 73 | 194 | 2.0 | 5.0 | 0.00 | 0.00 | 0.00 | 56 | 809.3 |
| 20260505041602 | 74 | 167 | 2.0 | 5.0 | 0.00 | 0.00 | 0.00 | 55 | 809.3 |
| 20260505034502 | 75 | 207 | 2.0 | 5.0 | 0.00 | 0.00 | 0.00 | 54 | 809.3 |
| 20260505033004 | 75 | 175 | 2.0 | 7.0 | 0.00 | 0.00 | 0.00 | 53 | 809.3 |
| 20260505031509 | 75 | 175 | 2.0 | 8.0 | 0.00 | 0.00 | 0.00 | 53 | 809.3 |
| 20260505030008 | 75 | 171 | 2.0 | 7.0 | 0.00 | 0.00 | 0.00 | 53 | 809.3 |
| 20260505024515 | 75 | 214 | 2.0 | 6.0 | 0.00 | 0.00 | 0.00 | 53 | 809.3 |
| 20260505023022 | 76 | 175 | 2.0 | 7.0 | 0.00 | 0.00 | 0.00 | 52 | 809.3 |
| 20260505021529 | 76 | 172 | 2.0 | 5.0 | 0.00 | 0.00 | 0.00 | 52 | 809.3 |
| 20260505020026 | 76 | 226 | 1.0 | 6.0 | 0.00 | 0.00 | 0.00 | 52 | 809.3 |
| 20260505014528 | 76 | 198 | 1.0 | 5.0 | 0.00 | 0.00 | 0.00 | 51 | 809.3 |
| 20260505013036 | 76 | 190 | 2.0 | 7.0 | 0.00 | 0.00 | 0.00 | 51 | 809.3 |
| 20260505011532 | 76 | 181 | 1.0 | 6.0 | 0.00 | 0.00 | 0.00 | 50 | 809.3 |
| 20260505010035 | 77 | 237 | 3.0 | 7.0 | 0.00 | 0.00 | 0.00 | 49 | 809.3 |
| 20260505004540 | 78 | 212 | 2.0 | 5.0 | 0.00 | 0.00 | 0.00 | 49 | 809.3 |
| 20260505003047 | 78 | 195 | 3.0 | 10.0 | 0.00 | 0.00 | 0.00 | 48 | 809.3 |
| 20260505001552 | 79 | 160 | 2.0 | 6.0 | 0.00 | 0.00 | 0.00 | 48 | 809.3 |
| 20260505000058 | 79 | 199 | 2.0 | 5.0 | 0.00 | 0.00 | 0.00 | 47 | 809.3 |
| 20260504234552 | 79 | 182 | 3.0 | 8.0 | 0.00 | 0.00 | 0.00 | 47 | 809.3 |
| 20260504233106 | 80 | 190 | 3.0 | 8.0 | 0.00 | 0.00 | 0.00 | 46 | 809.3 |
| 20260504231558 | 80 | 173 | 2.0 | 7.0 | 0.00 | 0.00 | 0.00 | 45 | 809.3 |
| 20260504230106 | 81 | 221 | 2.0 | 7.0 | 0.00 | 0.00 | 0.00 | 44 | 809.3 |
| 20260504224502 | 82 | 243 | 3.0 | 8.0 | 0.00 | 0.00 | 0.00 | 43 | 809.3 |
| 20260504223009 | 82 | 199 | 3.0 | 9.0 | 0.00 | 0.00 | 0.00 | 43 | 809.3 |
| 20260504221516 | 82 | 232 | 3.0 | 9.0 | 0.00 | 0.00 | 0.00 | 43 | 809.3 |
| 20260504220031 | 82 | 187 | 2.0 | 11.0 | 0.00 | 0.00 | 0.00 | 42 | 809.3 |
| 20260504214525 | 82 | 220 | 2.0 | 6.0 | 0.00 | 0.00 | 0.00 | 43 | 809.3 |
| 20260504213027 | 83 | 219 | 3.0 | 8.0 | 0.00 | 0.00 | 0.00 | 41 | 809.3 |
| 20260504211535 | 83 | 237 | 4.0 | 17.0 | 0.00 | 0.00 | 0.00 | 40 | 809.3 |
| 20260504210032 | 83 | 220 | 3.0 | 15.0 | 0.00 | 0.00 | 0.00 | 41 | 809.3 |
| 20260504204531 | 82 | 189 | 3.0 | 10.0 | 0.00 | 0.00 | 0.00 | 41 | 809.3 |
| 20260504203029 | 82 | 185 | 4.0 | 12.0 | 0.00 | 0.00 | 0.00 | 42 | 809.3 |
| 20260504201534 | 82 | 200 | 3.0 | 7.0 | 0.00 | 0.00 | 0.00 | 41 | 809.3 |
| 20260504200034 | 82 | 227 | 3.0 | 10.0 | 0.00 | 0.00 | 0.00 | 42 | 809.3 |
| 20260504194534 | 82 | 165 | 3.0 | 11.0 | 0.00 | 0.00 | 0.00 | 41 | 809.3 |
| 20260504193037 | 81 | 184 | 3.0 | 8.0 | 0.00 | 0.00 | 0.00 | 42 | 809.3 |
| 20260504191529 | 81 | 230 | 2.0 | 8.0 | 0.00 | 0.00 | 0.00 | 42 | 809.3 |
| 20260504190030 | 81 | 235 | 3.0 | 8.0 | 0.00 | 0.00 | 0.00 | 42 | 809.3 |
| 20260504184534 | 80 | 234 | 4.0 | 8.0 | 0.00 | 0.00 | 0.00 | 42 | 809.3 |
| 20260504183031 | 79 | 215 | 3.0 | 8.0 | 0.00 | 0.00 | 0.00 | 44 | 809.3 |